This is the latest recevied weather packets stored in our database for station/object VE2JJ-13. If no packets are shown the sender has not sent any weather packets the latest 10 day(s).
| Time | Temp. | Humidity | Pressure | Rain* | Wind** | Luminosity | Snow |
|---|---|---|---|---|---|---|---|
| 1777930134 | 18.89° C | 53% | 995.8 hPa | 0 mm | - | - | - |
| 1777929835 | 19.44° C | 52% | 995.8 hPa | 0 mm | - | - | - |
| 1777929534 | 20° C | 49% | 995.8 hPa | 0 mm | - | - | - |
| 1777928906 | 19.44° C | 52% | 995.8 hPa | 0 mm | - | - | - |
| 1777928605 | 19.44° C | 52% | 995.9 hPa | 0 mm | - | - | - |
| 1777928275 | 18.89° C | 53% | 995.9 hPa | 0 mm | - | - | - |
| 1777927944 | 19.44° C | 53% | 996 hPa | 0 mm | - | - | - |
| 1777927620 | 18.89° C | 53% | 996 hPa | 0 mm | - | - | - |
| 1777927315 | 18.89° C | 54% | 996 hPa | 0 mm | - | - | - |
| 1777927015 | 18.89° C | 54% | 996 hPa | 0 mm | - | - | - |
| 1777926685 | 18.89° C | 54% | 996 hPa | 0 mm | - | - | - |
| 1777926384 | 18.89° C | 54% | 996.2 hPa | 0 mm | - | - | - |
| 1777926085 | 18.89° C | 54% | 996.2 hPa | 0 mm | - | - | - |
| 1777925126 | 18.33° C | 55% | 996.2 hPa | 0 mm | - | - | - |
| 1777924795 | 17.78° C | 56% | 996.4 hPa | 0 mm | - | - | - |
| 1777924135 | 17.78° C | 56% | 996.6 hPa | 0 mm | - | - | - |
| 1777923806 | 17.22° C | 56% | 996.6 hPa | 0 mm | - | - | - |
| 1777923506 | 17.78° C | 56% | 996.6 hPa | 0 mm | - | - | - |
| 1777923205 | 17.22° C | 56% | 996.6 hPa | 0 mm | - | - | - |
| 1777922874 | 17.78° C | 56% | 996.7 hPa | 0 mm | - | - | - |
| 1777922577 | 17.78° C | 56% | 996.7 hPa | 0 mm | - | - | - |
| 1777922253 | 17.78° C | 56% | 996.7 hPa | 0 mm | - | - | - |
| 1777921914 | 17.78° C | 56% | 997 hPa | 0 mm | - | - | - |
| 1777921614 | 17.78° C | 58% | 997 hPa | 0 mm | - | - | - |
| 1777921287 | 17.22° C | 57% | 997.3 hPa | 0 mm | - | - | - |
* Rain latest hour (hover to see other rain measurements)
** Current wind speed in m/s (hover to see current wind gust speed)